Location: Burbank
(38.7788°N, 114.0429°W)
Time: 08:35:14
(UTC+00:00)

Courier 1B Rocket - Pass Details

Date: 15 May 2026
Orbit: 920 x 1201 km, 28.2° (Epoch: 11 June)

Event Time Altitude Azimuth Distance (km) Brightness Sun altitude
Rises 20:23:56 0° 259° (W) 3,671 8.2 67.3°
Reaches altitude 10° 20:27:31 10° 240° (WSW) 2,771 7.9 66.9°
Maximum altitude 20:31:40 17° 201° (SSW) 2,342 7.7 66.5°
Drops below altitude 10° 20:36:00 10° 163° (SSE) 2,896 7.8 65.9°
Sets 20:39:53 0° 145° (SE) 3,910 8.2 65.4°
